Home > Weather > Ramat Gan > Past weeks

Flag for Israel Past Weather in Ramat Gan, Israel — Yesterday and Last 2 Weeks

Now
66 °F

Passing clouds.


Feels Like: 66 °F
Forecast: 68 / 87 °F
Wind: 5 mph from East

Location: Dov Airport

Current Time: May 31, 2016 at 6:58:20 AM

Latest Report: May 31, 2016 at 5:50 AM


Visibility: N/A

Pressure: 30.01 "Hg

Humidity: 83%

Dew Point: 61 °F

Location of Ramat GanLocation

Past Weather in Ramat Gan — Graph

°F

Ramat Gan Temperature Yesterday

Maximum temperature yesterday: 77 °F (at 1:50 PM)
Minimum temperature yesterday: 66 °F (at 5:50 AM)
Average temperature yesterday: 74 °F

High & Low Weather Summary for the Past Weeks

 TemperatureHumidityPressure
High91 °F (May 22, 4:50 PM)94% (May 17, 5:50 AM)30.01 "Hg (May 17, 5:50 AM)
Low64 °F (May 20, 5:50 AM)11% (May 22, 4:50 PM)29.74 "Hg (May 16, 4:50 PM)
Average74 °F64%29.91 "Hg
* Reported May 15 10:50 PM — May 30 10:50 PM, Ramat Gan, Weather by CustomWeather, © 2016

Note: Actual official high and low records may vary slightly from our data, if they occured in-between our weather recording intervals... More about our weather records

Advertising

Ramat Gan Weather History for the Previous 24 Hours

Scroll right to see more
 ConditionsComfort  
Time TempWeatherWind HumidityBarometerVisibility
10:50 PM
Mon, May 30
72 °FClear.3 mph73%30.01 "Hg10 mi
9:50 PM72 °FClear.10 mph78%30.01 "Hg10 mi
8:50 PM72 °FPassing clouds.10 mph78%30.01 "HgN/A
7:50 PM73 °FSunny.9 mph74%30.01 "Hg10 mi
6:50 PM75 °FSunny.12 mph69%29.98 "Hg10 mi
5:50 PM75 °FSunny.12 mph69%29.98 "Hg10 mi
4:50 PM77 °FSunny.13 mph65%30.01 "Hg10 mi
3:50 PM77 °FSunny.12 mph65%29.98 "Hg10 mi
2:50 PM77 °FSunny.13 mph65%30.01 "Hg10 mi
1:50 PM77 °FSunny.12 mph61%29.98 "Hg10 mi
12:50 PM75 °FSunny.12 mph65%30.01 "Hg10 mi
11:50 AM75 °FSunny.10 mph65%30.01 "Hg10 mi
10:50 AM75 °FSunny.9 mph65%30.01 "Hg10 mi
9:50 AM73 °FSunny.8 mph69%30.01 "Hg10 mi
8:50 AM73 °FPassing clouds.6 mph69%30.01 "HgN/A
7:50 AM73 °FSunny.3 mph65%29.98 "Hg10 mi
6:50 AM68 °FPassing clouds.5 mph78%29.98 "HgN/A
Weather by CustomWeather, © 2016

See weather overviewHow to use our weather pages